Temp
17 18 19 18 16 13 16 18 19 22 21 21 22 20 20 20 19 18 19 19 18 18 17 17 16 15 16 15 16 16 16 16 15 15 15 15 15 15 15 14 14 14 14 14 14 14 14 14 14
17 18 18 18 15 16 16 17 20 21 20 20 21 20 19 18 19 19 18 18 18 18 17 17 15 16 16 16 16 16 16 16 15 15 15 15 15 15 14 14 14 14 14 14 14 14 14 14 14
16 17 18 14 13 15 16 18 19 20 21 21 19 19 18 18 18 20 19 18 17 17 17 16 15 16 16 16 16 16 16 15 15 15 15 15 15 14 14 14 14 14 14 14 14 14 14 14 14
16 17 17 15 16 17 18 20 19 19 21 21 19 16 18 18 19 19 18 18 17 17 17 16 16 16 16 16 16 16 16 16 15 15 15 14 14 14 14 14 13 13 13 13 13 13 13 13 14
15 16 14 14 16 18 17 20 19 19 20 20 20 16 17 18 18 19 18 17 17 17 16 16 16 16 16 16 16 16 16 15 15 15 14 14 14 14 14 13 13 13 13 13 13 13 13 13 13
15 15 13 14 15 18 16 21 20 19 20 20 18 17 17 17 18 18 17 17 17 17 16 16 16 16 16 16 16 16 16 15 15 15 14 14 14 14 13 13 13 13 13 13 13 13 13 13 13
13 11 13 14 14 16 18 21 19 19 19 20 19 15 16 17 18 18 17 16 16 17 16 16 16 16 16 16 15 15 15 15 15 15 14 14 14 13 13 13 13 13 13 13 13 13 13 13 13
15 12 14 14 14 15 19 20 22 20 19 20 20 15 14 17 17 17 16 16 16 16 16 16 16 16 16 15 15 15 15 15 15 15 14 14 13 13 13 13 13 13 13 13 13 13 13 12 13
14 12 12 14 15 16 18 19 20 20 20 19 20 20 21 18 17 16 16 15 16 15 15 16 16 16 16 15 15 15 15 15 15 14 14 14 13 13 13 13 13 13 13 13 12 13 12 12 12
13 10 13 15 16 15 17 18 20 20 18 18 19 19 19 18 17 16 16 15 15 15 15 15 16 16 16 15 15 15 15 14 14 14 14 13 13 13 13 13 13 12 12 12 12 12 12 12 12
12 11 14 16 16 16 16 19 19 18 17 19 19 18 18 17 16 16 16 16 17 16 15 15 15 15 15 15 15 15 15 14 14 14 14 13 13 13 13 13 13 12 12 12 12 12 12 12 11
12 13 14 15 16 16 16 18 18 18 20 20 21 21 18 17 17 17 16 16 16 16 16 15 15 15 15 15 14 14 14 14 14 14 14 13 13 12 13 13 13 12 12 12 12 12 12 11 11
11 12 14 15 16 15 16 17 17 19 20 21 20 18 19 18 17 17 17 16 16 16 15 15 15 15 15 15 14 14 14 14 14 14 13 13 13 13 13 12 12 12 11 11 11 11 11 11 11
12 12 13 14 15 15 15 16 18 20 20 20 18 18 18 19 18 17 16 16 16 16 15 15 15 15 15 14 14 14 14 14 13 13 13 13 13 13 12 12 12 12 11 11 11 11 11 11 11
12 11 11 13 14 14 15 14 15 19 20 19 17 18 18 18 17 18 18 16 16 16 15 15 15 14 14 14 13 14 14 13 13 13 13 13 13 13 12 12 12 12 11 11 11 11 11 10 10
11 11 11 12 13 15 15 14 15 18 19 18 16 17 17 17 18 18 17 17 16 15 15 15 15 14 14 13 13 13 13 13 13 12 12 12 12 12 12 12 12 12 11 11 11 11 11 10 11
8 8 10 11 13 14 13 14 15 18 18 18 17 16 17 17 17 17 17 17 16 16 15 15 14 14 14 13 13 13 13 13 13 12 12 12 12 12 12 12 12 11 11 11 11 11 11 10 10
8 9 10 10 13 12 12 12 13 16 17 18 18 18 17 17 18 17 17 16 16 15 15 14 14 14 13 13 13 13 13 13 12 12 12 12 12 12 12 12 12 11 11 11 10 11 11 10 10
9 9 9 9 11 12 11 11 13 15 15 14 16 17 18 18 18 18 17 17 16 15 15 14 14 14 13 13 13 13 13 12 12 12 11 11 11 12 12 11 11 11 11 10 10 10 10 10 10
8 8 8 9 10 9 11 11 12 12 14 16 18 18 18 19 19 18 17 16 16 16 15 14 14 14 13 13 13 13 13 12 12 11 11 11 11 11 11 11 11 11 10 10 10 10 10 10 10
8 7 8 9 10 10 11 10 12 13 14 16 17 18 17 19 20 19 18 17 16 15 15 14 14 13 13 13 13 12 12 11 11 11 11 11 11 11 11 11 11 10 10 10 10 10 9 9 9
7 8 9 9 9 7 11 10 11 12 12 12 15 16 18 18 18 19 18 18 17 16 15 14 13 13 12 12 12 12 12 12 11 11 11 11 11 11 11 10 10 10 10 10 9 9 9 9 8
8 9 9 9 8 8 10 5 9 12 12 12 11 17 18 18 18 19 18 18 17 15 14 13 12 12 11 12 12 11 11 11 11 11 11 10 10 10 10 10 10 9 9 9 9 9 9 8 8
10 10 9 5 6 8 8 8 8 11 12 12 11 14 17 17 17 18 17 16 15 14 13 12 12 11 11 11 11 11 11 11 11 10 10 10 10 10 10 9 9 9 9 8 8 8 8 8 8
8 7 6 7 7 9 5 5 12 11 11 11 10 13 13 14 14 15 14 13 13 13 12 12 11 10 10 10 10 10 10 10 10 10 9 10 9 9 9 9 8 8 8 8 8 8 7 7 7
6 6 5 6 6 6 4 5 9 10 8 8 10 12 10 11 12 12 12 12 12 12 12 11 11 10 9 9 9 10 10 9 9 9 9 9 9 8 8 8 8 8 7 7 7 7 7 7 6
6 7 7 4 1 3 5 7 9 9 8 6 6 9 9 10 11 12 12 13 12 11 11 10 9 9 9 9 9 9 9 9 8 8 8 8 8 8 7 7 7 7 7 6 6 6 6 6 6
7 6 8 4 6 5 6 7 8 7 7 6 4 6 7 9 9 10 11 10 10 10 9 9 8 8 8 8 8 8 8 8 8 8 8 8 7 7 7 7 6 6 6 6 6 5 5 5 5
5 4 6 5 5 5 5 7 6 7 7 6 5 5 6 7 8 8 8 8 9 8 8 8 8 8 8 8 8 8 8 7 7 7 7 7 6 6 6 6 5 5 5 5 5 5 4 4 4
6 6 6 5 6 2 3 10 8 7 6 7 5 5 5 7 7 7 7 7 7 7 7 7 7 8 8 8 7 7 7 7 6 6 6 5 5 5 5 5 4 4 4 4 4 4 3 3 3
Height
1516 1515 1515 1514 1525 1527 1528 1516 1504 1499 1500 1499 1501 1503 1504 1504 1512 1527 1515 1519 1522 1525 1528 1532 1535 1537 1539 1540 1540 1541 1540 1540 1540 1540 1539 1539 1538 1537 1536 1536 1535 1534 1534 1533 1532 1531 1530 1529 1528
1515 1514 1514 1513 1527 1535 1528 1508 1504 1498 1499 1500 1501 1504 1505 1509 1508 1510 1515 1518 1523 1525 1528 1532 1535 1537 1538 1539 1540 1540 1540 1540 1540 1540 1539 1539 1538 1537 1536 1536 1535 1535 1534 1533 1532 1532 1530 1529 1528
1514 1514 1515 1516 1527 1530 1523 1503 1499 1497 1497 1498 1501 1504 1506 1508 1509 1510 1514 1518 1522 1526 1529 1532 1534 1537 1538 1539 1540 1540 1540 1540 1540 1540 1540 1539 1539 1538 1537 1537 1536 1535 1534 1534 1533 1532 1531 1530 1528
1514 1515 1516 1520 1520 1511 1507 1498 1498 1498 1499 1499 1500 1505 1508 1508 1510 1512 1514 1518 1522 1526 1528 1532 1534 1536 1538 1540 1540 1540 1540 1540 1540 1540 1540 1539 1539 1539 1538 1538 1537 1536 1535 1534 1533 1532 1531 1529 1528
1513 1513 1519 1521 1515 1504 1500 1498 1498 1499 1498 1499 1500 1507 1508 1509 1511 1513 1515 1518 1522 1526 1529 1532 1534 1536 1538 1540 1540 1541 1540 1540 1540 1540 1540 1540 1539 1539 1539 1538 1537 1537 1536 1535 1534 1532 1531 1530 1529
1513 1512 1522 1522 1512 1502 1499 1496 1497 1499 1498 1499 1501 1504 1509 1510 1512 1514 1517 1519 1523 1526 1529 1532 1534 1536 1538 1539 1540 1541 1541 1540 1540 1540 1540 1540 1540 1540 1539 1539 1538 1537 1536 1535 1534 1533 1531 1530 1529
1510 1514 1517 1514 1512 1507 1499 1495 1495 1496 1498 1498 1499 1506 1508 1510 1513 1515 1518 1521 1523 1527 1529 1531 1534 1536 1538 1539 1540 1541 1541 1540 1540 1540 1540 1540 1540 1540 1540 1540 1539 1538 1537 1536 1534 1533 1532 1530 1529
1510 1511 1513 1511 1511 1508 1496 1495 1494 1495 1497 1496 1497 1502 1506 1506 1512 1515 1518 1521 1524 1527 1530 1532 1534 1536 1538 1539 1540 1541 1541 1540 1540 1540 1541 1541 1541 1541 1541 1540 1539 1538 1537 1536 1535 1533 1532 1530 1529
1508 1514 1515 1507 1506 1500 1496 1495 1493 1493 1494 1494 1496 1496 1497 1502 1509 1514 1516 1520 1523 1526 1529 1531 1533 1535 1537 1538 1539 1540 1540 1540 1541 1540 1541 1541 1541 1541 1541 1540 1540 1539 1538 1536 1534 1533 1531 1530 1529
1507 1514 1508 1501 1498 1499 1497 1496 1493 1493 1494 1494 1494 1495 1497 1501 1506 1510 1512 1515 1519 1523 1527 1530 1533 1535 1536 1538 1539 1539 1540 1541 1541 1541 1541 1541 1541 1541 1541 1541 1540 1539 1538 1536 1534 1533 1531 1529 1528
1505 1508 1501 1499 1498 1499 1497 1495 1494 1493 1495 1488 1488 1491 1496 1500 1504 1507 1510 1513 1516 1522 1525 1528 1531 1534 1536 1537 1538 1539 1540 1540 1540 1540 1541 1541 1542 1541 1541 1540 1540 1539 1538 1537 1535 1533 1531 1529 1528
1507 1500 1501 1500 1499 1499 1498 1497 1495 1492 1489 1488 1489 1488 1492 1498 1500 1503 1507 1511 1515 1519 1524 1527 1530 1533 1535 1536 1537 1539 1539 1540 1540 1540 1541 1541 1541 1541 1541 1541 1540 1538 1537 1536 1534 1532 1530 1529 1527
1504 1502 1500 1499 1498 1499 1498 1493 1496 1491 1489 1488 1490 1491 1491 1494 1498 1503 1507 1511 1514 1517 1522 1526 1528 1531 1534 1535 1537 1538 1538 1539 1540 1540 1540 1541 1541 1541 1541 1540 1539 1538 1537 1535 1534 1532 1530 1529 1527
1502 1502 1499 1497 1497 1497 1497 1494 1495 1488 1487 1487 1489 1489 1492 1494 1496 1501 1504 1508 1511 1516 1520 1524 1527 1530 1532 1534 1536 1537 1538 1539 1539 1539 1539 1540 1540 1540 1540 1540 1539 1538 1537 1535 1533 1532 1530 1529 1527
1501 1502 1498 1494 1494 1495 1493 1494 1488 1483 1487 1487 1488 1489 1491 1494 1496 1497 1500 1504 1509 1513 1519 1522 1525 1528 1529 1532 1534 1535 1536 1537 1538 1539 1539 1540 1540 1540 1540 1539 1538 1537 1536 1535 1533 1532 1531 1529 1527
1501 1501 1505 1493 1492 1492 1494 1492 1482 1485 1484 1485 1487 1489 1490 1492 1494 1497 1499 1503 1507 1512 1516 1520 1522 1526 1527 1530 1532 1533 1535 1536 1537 1538 1538 1539 1539 1539 1539 1539 1538 1537 1536 1535 1533 1532 1530 1529 1527
1507 1509 1503 1499 1490 1490 1492 1490 1476 1481 1482 1482 1484 1487 1489 1491 1493 1495 1497 1501 1505 1509 1514 1518 1521 1524 1526 1529 1531 1532 1533 1534 1535 1536 1537 1538 1538 1538 1538 1538 1537 1537 1536 1534 1533 1532 1530 1529 1527
1509 1506 1502 1501 1492 1491 1490 1489 1480 1479 1478 1476 1480 1483 1487 1488 1487 1493 1496 1499 1504 1508 1512 1516 1519 1522 1524 1526 1528 1530 1530 1533 1534 1535 1536 1537 1537 1538 1538 1537 1537 1536 1535 1534 1533 1531 1530 1529 1527
1501 1503 1505 1501 1494 1494 1490 1487 1481 1476 1478 1478 1478 1480 1482 1483 1487 1491 1493 1497 1501 1505 1509 1512 1515 1518 1521 1522 1525 1526 1528 1531 1532 1534 1535 1536 1536 1537 1537 1537 1536 1535 1535 1534 1532 1531 1530 1529 1527
1502 1504 1502 1497 1493 1496 1489 1485 1480 1474 1474 1473 1473 1476 1477 1479 1482 1485 1488 1492 1497 1501 1504 1508 1511 1515 1518 1520 1522 1525 1527 1529 1530 1532 1533 1534 1535 1536 1536 1536 1535 1535 1534 1533 1532 1531 1530 1529 1527
1500 1502 1501 1501 1494 1491 1488 1487 1479 1470 1470 1471 1471 1472 1472 1472 1474 1478 1482 1487 1492 1496 1500 1504 1508 1512 1515 1517 1519 1522 1525 1527 1528 1530 1531 1533 1533 1534 1535 1535 1535 1534 1533 1533 1532 1531 1530 1529 1528
1499 1495 1496 1497 1502 1509 1486 1490 1479 1471 1466 1465 1465 1467 1465 1468 1470 1473 1477 1481 1486 1492 1497 1501 1506 1509 1511 1514 1517 1520 1522 1524 1526 1528 1529 1531 1532 1533 1533 1534 1533 1533 1533 1532 1531 1530 1530 1529 1528
1492 1488 1491 1493 1498 1499 1491 1509 1478 1467 1467 1460 1457 1458 1460 1463 1465 1467 1471 1477 1482 1488 1494 1499 1502 1505 1508 1511 1514 1517 1520 1522 1524 1526 1527 1529 1531 1531 1532 1532 1532 1532 1532 1531 1530 1530 1529 1528 1527
1484 1486 1490 1499 1500 1500 1486 1492 1478 1466 1458 1454 1451 1452 1455 1457 1460 1463 1468 1474 1480 1485 1490 1495 1499 1502 1505 1508 1512 1515 1517 1520 1522 1524 1525 1527 1528 1530 1530 1531 1531 1531 1530 1530 1529 1529 1528 1527 1527
1485 1493 1504 1500 1497 1484 1491 1498 1459 1451 1448 1448 1447 1445 1450 1454 1456 1459 1463 1469 1476 1481 1486 1491 1495 1499 1502 1506 1509 1512 1515 1517 1520 1522 1524 1525 1527 1528 1529 1529 1529 1529 1529 1528 1528 1527 1527 1526 1525
1484 1487 1504 1500 1501 1495 1494 1492 1459 1446 1444 1443 1442 1445 1449 1451 1455 1459 1463 1468 1473 1479 1483 1488 1492 1496 1500 1504 1507 1510 1513 1516 1518 1520 1521 1523 1524 1525 1526 1527 1528 1527 1527 1527 1526 1526 1525 1524 1524
1482 1481 1480 1502 1516 1510 1487 1465 1449 1446 1444 1443 1442 1442 1447 1451 1454 1458 1462 1467 1472 1476 1481 1485 1490 1494 1498 1502 1505 1508 1511 1514 1516 1517 1519 1521 1521 1523 1524 1525 1525 1525 1525 1524 1524 1524 1523 1522 1522
1474 1477 1482 1498 1494 1498 1479 1468 1455 1448 1443 1443 1444 1442 1445 1450 1453 1456 1461 1465 1470 1474 1479 1484 1488 1492 1495 1499 1503 1506 1509 1511 1512 1514 1516 1517 1518 1520 1521 1522 1522 1522 1522 1522 1522 1521 1520 1520 1519
1478 1482 1479 1480 1484 1486 1490 1464 1439 1436 1434 1434 1438 1441 1443 1447 1452 1456 1460 1465 1470 1474 1479 1483 1486 1490 1494 1498 1501 1504 1507 1508 1510 1511 1513 1515 1517 1518 1518 1519 1519 1520 1519 1519 1519 1518 1517 1516 1515
1463 1462 1466 1478 1477 1492 1487 1441 1430 1432 1433 1433 1440 1444 1446 1449 1452 1456 1461 1465 1469 1474 1478 1481 1485 1489 1493 1496 1499 1502 1504 1506 1508 1509 1511 1513 1514 1515 1516 1516 1517 1517 1516 1516 1515 1514 1513 1512 1511
Wind_Speed
8 8 6 3 3 4 3 5 3 0 3 3 9 6 7 8 6 4 16 17 20 18 20 17 15 14 9 7 4 2 1 3 4 4 5 5 6 7 7 7 7 7 7 7 7 6 6 6 6
5 6 3 1 4 2 5 4 6 4 8 21 17 12 4 2 7 13 25 18 16 18 20 18 15 12 9 7 5 3 2 3 4 5 6 6 7 7 7 7 7 7 7 7 7 7 7 7 6
4 3 2 3 3 5 5 5 4 6 20 2 5 7 4 8 8 24 20 20 19 19 19 17 15 12 9 7 5 3 3 3 4 5 6 6 6 6 7 7 7 8 8 8 8 8 8 8 7
5 4 1 3 6 5 6 2 3 6 3 5 11 7 6 3 18 16 24 20 20 20 19 17 14 12 9 7 5 3 3 4 4 4 5 5 5 6 7 7 8 8 9 9 9 9 9 9 9
8 3 2 2 5 4 4 5 8 4 6 7 7 5 4 15 9 16 24 22 19 21 20 16 14 12 9 7 5 3 3 3 4 4 4 5 5 7 7 8 9 9 9 9 9 9 9 10 10
3 1 2 5 6 3 7 7 6 3 6 10 7 7 7 13 10 19 21 20 19 21 20 17 15 12 9 7 5 3 2 3 3 3 4 5 6 7 7 8 8 9 9 9 9 9 9 10 10
3 2 5 4 7 5 5 5 7 7 6 6 16 5 7 17 15 20 19 19 18 19 19 17 15 12 10 7 5 2 1 2 3 3 5 5 5 6 6 7 9 9 9 9 9 9 9 10 10
3 3 4 5 5 7 4 3 7 13 7 11 17 7 8 26 25 23 21 19 19 18 16 15 14 12 10 8 5 2 0 1 1 3 4 4 4 5 6 7 8 9 9 9 10 10 9 10 10
2 1 5 7 7 5 4 4 2 6 13 8 12 9 8 29 30 28 26 23 21 19 16 16 15 13 10 8 6 3 0 0 1 2 3 3 3 4 5 7 8 9 9 10 10 11 11 11 10
4 3 6 3 3 5 5 4 5 4 6 4 10 9 17 31 34 33 32 29 26 23 19 17 16 13 11 9 6 3 1 1 0 2 2 3 3 4 6 7 9 10 11 11 11 11 11 10 10
3 4 2 3 6 4 5 11 5 5 4 13 21 23 31 35 36 33 31 28 26 21 20 18 17 15 12 9 6 3 2 2 1 1 2 2 3 4 6 8 8 9 9 9 9 10 10 10 9
3 6 9 7 5 4 4 10 11 12 5 8 18 25 36 38 37 36 33 30 27 25 20 17 18 15 13 10 6 4 2 1 1 0 1 1 2 4 6 7 8 9 9 10 10 10 10 10 10
4 5 11 10 12 11 13 18 7 13 15 7 18 29 36 35 35 34 30 29 28 25 22 19 18 16 13 9 7 5 3 3 2 1 0 0 2 4 5 7 8 9 9 10 10 10 9 9 8
6 10 15 11 12 10 6 9 5 7 10 8 22 31 38 35 34 34 33 32 31 25 22 19 18 15 13 10 8 7 5 5 3 2 1 1 2 3 5 7 8 8 9 10 10 10 9 8 8
8 4 7 8 6 6 4 6 9 27 12 11 24 31 34 35 35 33 30 32 30 27 22 20 17 16 13 12 10 9 7 6 4 4 3 2 1 2 4 6 7 8 9 9 10 10 9 8 8
3 2 2 5 7 7 8 13 10 22 18 16 22 28 32 35 34 31 31 31 31 26 24 20 19 17 15 13 12 11 9 7 6 5 4 3 1 2 4 6 7 8 8 9 9 8 9 8 7
4 4 5 6 5 2 7 6 12 15 16 17 21 26 32 33 33 33 33 32 31 27 25 23 21 19 17 16 15 13 11 9 7 6 5 3 2 3 4 6 7 7 8 8 9 9 9 8 7
4 3 3 4 3 3 6 7 9 6 19 25 24 23 27 33 36 32 31 32 32 29 27 25 24 22 19 19 17 15 13 11 9 8 6 4 3 2 4 5 6 7 7 8 8 9 9 9 8
2 2 4 5 6 4 8 7 13 13 11 12 18 24 28 32 31 29 27 28 30 30 30 30 28 26 23 21 19 17 14 12 10 9 7 5 3 2 3 4 5 5 6 7 8 9 9 8 8
6 4 10 7 7 7 8 9 10 9 8 18 27 30 32 30 30 30 30 30 31 30 31 31 30 27 22 20 17 16 14 13 11 10 8 6 4 2 2 3 4 5 6 7 7 8 9 9 9
5 7 3 7 6 5 5 6 6 8 13 21 21 33 34 36 33 32 32 32 32 34 31 32 30 25 21 20 19 18 17 14 13 11 9 7 5 3 2 3 3 4 5 6 7 8 8 8 8
7 6 7 5 1 4 3 9 6 7 10 6 22 24 31 29 31 33 32 33 33 32 32 30 26 23 21 21 20 18 15 14 11 10 10 8 7 4 3 3 3 4 4 5 6 7 7 7 7
6 7 7 6 5 1 4 1 6 3 7 13 13 25 27 25 28 31 33 33 31 31 30 26 23 22 21 21 20 17 16 14 12 11 10 9 7 6 5 4 3 3 4 5 6 6 7 7 7
2 3 3 3 3 3 9 7 4 7 10 5 8 23 26 27 27 29 29 31 32 30 27 24 21 21 21 20 19 18 16 13 12 11 11 9 8 7 6 5 4 4 4 5 5 6 6 7 7
3 4 1 2 3 9 2 2 13 7 6 6 9 27 24 20 19 23 29 34 32 30 26 22 20 21 21 20 19 17 15 13 12 11 10 9 9 8 7 7 6 6 6 6 6 6 6 6 7
7 8 5 6 4 5 2 6 7 6 6 12 15 21 19 20 19 21 26 30 29 27 25 22 20 20 20 19 17 16 15 14 12 11 10 10 10 9 9 8 8 8 8 8 8 8 8 8 8
4 5 5 5 2 2 4 8 7 2 2 2 13 25 22 19 18 19 21 24 27 27 24 21 19 19 19 17 16 15 14 12 11 11 10 10 10 10 10 10 10 11 10 10 11 10 10 11 11
4 3 3 1 2 5 5 5 6 7 9 7 7 18 22 21 20 21 22 25 27 26 24 22 20 20 19 18 17 15 14 13 12 11 11 11 11 12 12 11 12 12 12 12 12 12 13 13 14
3 2 2 2 5 4 2 6 7 11 11 17 12 21 26 24 24 25 25 25 25 24 22 21 21 20 20 19 17 16 14 12 11 10 9 9 9 10 11 11 11 11 12 12 13 13 14 15 16
3 7 7 4 4 3 3 14 1 5 6 11 12 20 24 25 26 26 25 24 22 21 21 20 19 18 18 17 16 15 13 11 9 8 8 7 7 8 8 9 10 11 12 12 13 13 15 16 16
Wind_Direction
273 286 289 300 53 66 260 261 275 245 124 168 142 166 169 123 155 203 150 151 167 169 168 171 170 174 179 177 181 156 89 32 22 32 39 33 27 23 23 27 33 34 30 22 16 12 8 3 0
272 282 281 126 104 117 263 251 229 212 127 112 106 108 60 101 134 143 151 150 165 168 169 171 170 175 174 179 167 138 66 30 34 41 36 28 26 29 34 35 30 26 22 16 9 5 0 354 349
262 311 302 114 141 192 221 224 225 145 148 87 103 86 93 141 158 155 158 153 161 171 170 171 172 175 178 174 158 130 70 53 50 42 31 26 28 33 38 35 31 27 25 24 20 15 12 7 1
231 202 87 120 222 250 210 276 184 136 181 194 134 77 99 203 155 160 159 157 164 172 171 173 175 175 178 168 161 135 80 59 49 42 30 34 34 38 38 39 38 34 30 26 22 17 13 11 8
216 180 164 238 245 258 256 277 184 212 157 156 155 155 101 142 153 163 162 162 171 173 174 175 175 176 174 167 164 130 76 62 54 43 39 39 39 41 44 42 40 33 27 23 20 16 13 12 7
227 199 124 210 246 273 293 260 185 212 173 153 116 113 143 174 185 165 167 167 174 176 173 175 174 175 174 172 164 131 80 62 51 42 39 42 45 49 48 43 39 29 22 17 14 12 9 6 2
162 120 204 195 243 293 250 293 193 190 197 194 151 94 155 176 185 174 169 168 173 177 175 176 173 173 176 176 166 148 81 53 37 41 48 56 53 51 47 42 32 23 18 13 10 7 3 359 356
221 134 191 223 195 251 273 272 251 192 208 167 171 159 178 178 178 175 170 171 173 180 181 179 176 176 179 179 173 168 61 34 28 54 59 64 55 52 50 34 24 25 18 12 5 3 358 354 351
202 90 224 213 178 220 280 346 270 174 162 178 186 170 203 172 176 175 175 178 182 181 185 187 183 182 186 183 181 178 121 12 65 57 58 64 52 51 37 27 23 18 13 6 360 358 356 356 351
171 171 221 239 205 218 297 329 278 163 163 199 176 163 173 173 178 182 183 184 186 186 186 187 191 193 189 185 181 171 154 188 90 57 56 49 48 33 26 17 14 12 6 1 357 355 352 351 351
200 212 247 309 288 229 277 336 296 160 244 209 185 163 174 177 183 191 195 198 192 188 189 190 193 195 193 192 190 183 187 193 129 76 44 44 32 13 16 9 4 1 356 355 355 354 350 348 350
290 242 257 285 335 298 238 305 319 213 225 254 201 184 176 184 191 197 202 199 194 195 196 197 194 199 195 198 202 208 209 202 191 147 8 35 7 6 0 357 353 351 354 356 359 357 357 354 351
223 282 292 280 298 299 274 274 262 279 265 259 194 180 183 192 197 203 206 203 198 199 200 204 202 203 204 205 217 228 236 227 224 210 313 35 347 354 350 350 347 347 352 357 358 357 357 360 356
313 302 287 284 276 278 251 262 227 268 244 234 195 187 189 195 200 203 205 206 204 204 207 210 209 209 211 216 228 239 245 236 234 250 254 264 333 345 345 344 343 347 353 357 360 357 359 2 5
295 311 303 266 240 239 252 283 229 244 255 227 199 196 195 200 204 208 208 209 208 208 212 218 217 216 218 226 236 244 244 235 238 244 231 250 296 332 339 339 345 349 353 359 1 358 3 7 360
321 199 256 289 198 237 152 255 228 234 234 221 210 207 205 205 209 212 215 214 212 213 214 219 218 219 221 230 239 242 234 232 240 237 227 237 275 324 341 345 347 351 356 3 4 9 9 6 3
357 254 240 307 249 176 180 249 274 232 220 222 220 215 214 215 214 214 217 218 217 218 218 218 217 217 222 225 229 230 222 229 232 229 224 229 255 312 338 343 349 353 1 5 5 11 15 16 9
231 306 305 250 319 212 242 250 278 261 226 224 225 223 223 224 223 219 218 219 222 221 219 221 220 218 221 223 226 224 221 223 221 220 218 221 243 312 334 341 350 357 1 4 6 9 13 13 15
215 256 256 269 267 299 248 233 248 262 248 240 235 230 226 231 233 225 220 214 214 216 217 218 218 217 224 224 223 222 222 220 220 218 219 219 231 283 322 341 349 354 360 4 7 11 11 12 17
234 239 265 284 264 178 267 262 245 255 232 237 228 237 234 231 233 230 222 217 214 215 215 216 216 219 225 225 225 223 219 219 217 217 216 217 226 256 303 331 343 351 357 3 5 4 6 9 16
242 226 246 250 318 260 255 281 257 269 221 244 247 243 251 229 227 227 223 220 217 216 215 213 214 221 224 220 216 215 214 215 216 214 211 217 224 246 282 315 333 345 352 356 356 358 2 4 9
238 188 221 244 148 237 164 269 247 251 246 216 236 234 237 232 228 227 223 219 216 212 210 209 214 219 219 219 219 219 221 219 214 211 214 217 221 237 261 290 319 334 341 347 349 353 356 358 2
233 192 209 226 208 44 251 5 253 208 265 252 233 234 238 236 227 226 219 215 209 205 204 206 211 215 217 216 215 213 210 208 210 214 216 213 223 235 247 265 287 308 325 335 340 345 348 347 347
186 124 77 54 130 223 226 186 244 204 225 238 254 236 230 231 228 222 218 206 199 195 198 202 209 212 210 210 209 207 209 213 215 212 209 219 228 238 247 258 270 285 301 314 323 331 336 339 336
119 99 7 250 223 233 81 117 241 246 233 226 231 219 205 206 212 209 200 193 192 191 193 198 202 205 205 205 205 207 211 210 212 214 218 225 234 242 248 257 264 273 282 291 300 310 316 321 323
190 161 168 203 201 253 43 236 245 237 296 276 250 209 181 179 178 179 184 188 190 193 194 195 199 201 202 201 202 204 206 210 212 216 223 231 238 245 251 257 263 269 275 278 284 290 297 300 303
202 194 165 83 118 49 231 268 295 234 307 88 156 165 172 175 177 180 182 187 191 191 190 191 193 194 196 196 197 200 204 208 213 220 228 237 245 250 253 255 259 266 272 274 277 282 284 289 293
177 188 118 17 199 232 271 276 234 221 216 181 182 166 166 168 169 172 176 177 178 181 184 186 190 191 191 193 194 196 199 204 210 219 228 237 243 249 254 258 261 267 273 276 279 282 285 287 290
138 239 217 182 155 191 265 261 211 213 204 191 186 174 166 163 163 163 164 167 173 178 184 190 191 191 192 193 195 199 203 209 216 224 233 241 249 254 258 263 269 273 276 278 280 283 285 287 289
214 190 160 167 229 235 206 256 358 293 224 166 159 167 163 161 161 163 165 167 170 174 177 181 183 188 189 193 198 202 206 208 213 222 229 238 247 251 255 262 268 272 275 277 280 283 286 287 288